Location: Alta
(39.2070°N, 120.8111°W)
Time: 06:53:32
(UTC+00:00)

CZ-4B DEB - Pass Details

Date: 15 December 2023
Orbit: 838 x 858 km, 99.0° (Epoch: 02 March)

Event Time Altitude Azimuth Distance (km) Brightness Sun altitude
Rises 03:03:29 0° 165° (SSE) 3,416 7.3 -26.7°
Reaches altitude 10° 03:05:50 10° 165° (SSE) 2,484 6.6 -27.2°
Maximum altitude 03:11:22 88° 252° (WSW) 865 4.1 -28.2°
Drops below altitude 10° 03:16:57 10° 346° (NNW) 2,499 6.7 -29.3°
Sets 03:19:20 0° 347° (NNW) 3,438 7.5 -29.8°
